TimePDT,TemperatureF,Dew PointF,Humidity,Sea Level PressureIn,VisibilityMPH,Wind Direction,Wind SpeedMPH,Gust SpeedMPH,PrecipitationIn,Events,Conditions,WindDirDegrees,DateUTC
12:54 AM,48.0,45.0,89,29.93,10.0,ENE,4.6,-,N/A,,Clear,60,2012-10-10 07:54:00
1:54 AM,50.0,46.0,86,29.93,10.0,North,4.6,-,N/A,,Clear,360,2012-10-10 08:54:00
2:54 AM,50.0,46.9,89,29.93,10.0,Calm,Calm,-,N/A,,Clear,0,2012-10-10 09:54:00
3:54 AM,48.0,44.1,86,29.93,10.0,Calm,Calm,-,N/A,,Clear,0,2012-10-10 10:54:00
4:54 AM,46.0,43.0,89,29.92,10.0,Calm,Calm,-,N/A,,Clear,0,2012-10-10 11:54:00
5:54 AM,45.0,43.0,93,29.92,10.0,Calm,Calm,-,N/A,,Clear,0,2012-10-10 12:54:00
6:54 AM,45.0,43.0,93,29.93,10.0,Calm,Calm,-,N/A,,Clear,0,2012-10-10 13:54:00
7:54 AM,48.0,45.0,89,29.93,10.0,NNW,3.5,-,N/A,,Clear,340,2012-10-10 14:54:00
8:54 AM,53.1,46.0,77,29.94,10.0,NW,3.5,-,N/A,,Clear,320,2012-10-10 15:54:00
9:54 AM,59.0,51.1,75,29.94,10.0,WSW,3.5,-,N/A,,Clear,250,2012-10-10 16:54:00
10:54 AM,62.1,52.0,70,29.93,10.0,SSW,8.1,-,N/A,,Clear,200,2012-10-10 17:54:00
11:54 AM,64.9,52.0,63,29.91,10.0,Variable,6.9,-,N/A,,Clear,0,2012-10-10 18:54:00
12:54 PM,69.1,52.0,54,29.88,10.0,SSW,6.9,-,N/A,,Clear,200,2012-10-10 19:54:00
1:54 PM,71.1,52.0,51,29.86,10.0,SSW,12.7,-,N/A,,Clear,200,2012-10-10 20:54:00
2:54 PM,72.0,52.0,49,29.84,10.0,SSW,13.8,-,N/A,,Clear,200,2012-10-10 21:54:00
3:54 PM,71.1,54.0,55,29.83,10.0,South,12.7,-,N/A,,Clear,190,2012-10-10 22:54:00
4:54 PM,69.1,54.0,58,29.83,10.0,SSW,16.1,-,N/A,,Clear,200,2012-10-10 23:54:00
5:54 PM,66.0,53.1,63,29.85,10.0,South,11.5,-,N/A,,Clear,190,2012-10-11 00:54:00
6:54 PM,61.0,51.1,70,29.88,10.0,SSW,12.7,-,N/A,,Scattered Clouds,200,2012-10-11 01:54:00
7:54 PM,59.0,50.0,72,29.90,10.0,Calm,Calm,-,N/A,,Clear,0,2012-10-11 02:54:00
8:54 PM,57.0,48.9,74,29.87,10.0,West,13.8,-,N/A,,Partly Cloudy,280,2012-10-11 03:54:00
9:54 PM,55.9,51.1,84,29.87,9.0,West,13.8,-,0.01,Rain,Light Rain,280,2012-10-11 04:54:00
10:54 PM,55.0,51.1,86,29.91,10.0,WSW,9.2,-,0.01,,Mostly Cloudy,250,2012-10-11 05:54:00
11:54 PM,55.9,51.1,84,29.91,10.0,West,10.4,19.6,N/A,,Scattered Clouds,270,2012-10-11 06:54:00